Time,TemperatureF,DewpointF,PressureIn,WindDirection,WindDirectionDegrees,WindSpeedMPH,WindSpeedGustMPH,Humidity,HourlyPrecipIn,Conditions,Clouds,dailyrainin,SoftwareType,DateUTC
2013-08-30 00:01:00,79.5,75.0,29.91,SSE,153,0.0,4.0,87,0.00,,,0.00,weatherlink.com 1.10,2013-08-30 05:01:00,
2013-08-30 00:16:00,79.4,76.0,29.91,ENE,70,3.0,5.0,88,0.00,,,0.00,weatherlink.com 1.10,2013-08-30 05:16:00,
2013-08-30 00:31:00,78.8,75.0,29.91,South,174,0.0,2.0,89,0.00,,,0.00,weatherlink.com 1.10,2013-08-30 05:31:00,
2013-08-30 00:46:00,77.8,75.0,29.91,East,88,0.0,2.0,91,0.00,,,0.00,weatherlink.com 1.10,2013-08-30 05:46:00,
2013-08-30 01:01:00,77.0,75.0,29.91,East,92,0.0,2.0,93,0.00,,,0.00,weatherlink.com 1.10,2013-08-30 06:01:00,
2013-08-30 01:16:00,76.4,75.0,29.91,East,98,1.0,1.0,94,0.00,,,0.00,weatherlink.com 1.10,2013-08-30 06:16:00,
2013-08-30 01:31:00,76.6,75.0,29.91,ESE,102,1.0,2.0,94,0.00,,,0.00,weatherlink.com 1.10,2013-08-30 06:31:00,
2013-08-30 01:46:00,76.7,75.0,29.91,East,85,1.0,2.0,94,0.00,,,0.00,weatherlink.com 1.10,2013-08-30 06:46:00,
2013-08-30 02:01:00,76.6,75.0,29.91,East,95,0.0,1.0,94,0.00,,,0.00,weatherlink.com 1.10,2013-08-30 07:01:00,
2013-08-30 02:16:00,76.7,74.0,29.90,SW,226,1.0,1.0,92,0.00,,,0.00,weatherlink.com 1.10,2013-08-30 07:16:00,
2013-08-30 02:31:00,78.0,74.0,29.90,West,259,1.0,2.0,87,0.00,,,0.00,weatherlink.com 1.10,2013-08-30 07:31:00,
2013-08-30 02:46:00,77.8,74.0,29.90,WSW,257,1.0,2.0,87,0.00,,,0.00,weatherlink.com 1.10,2013-08-30 07:46:00,
2013-08-30 03:01:00,77.6,73.0,29.90,WSW,246,0.0,1.0,86,0.00,,,0.00,weatherlink.com 1.10,2013-08-30 08:01:00,
2013-08-30 03:16:00,77.9,73.0,29.90,WSW,251,0.0,2.0,84,0.00,,,0.00,weatherlink.com 1.10,2013-08-30 08:16:00,
2013-08-30 03:31:00,77.8,73.0,29.90,West,264,0.0,1.0,84,0.00,,,0.00,weatherlink.com 1.10,2013-08-30 08:31:00,
2013-08-30 03:46:00,77.8,73.0,29.90,WSW,256,0.0,1.0,84,0.00,,,0.00,weatherlink.com 1.10,2013-08-30 08:46:00,
2013-08-30 04:01:00,77.8,73.0,29.90,WSW,248,0.0,2.0,84,0.00,,,0.00,weatherlink.com 1.10,2013-08-30 09:01:00,
2013-08-30 04:16:00,77.8,73.0,29.90,West,263,0.0,1.0,84,0.00,,,0.00,weatherlink.com 1.10,2013-08-30 09:16:00,
2013-08-30 04:31:00,77.7,72.0,29.90,West,262,0.0,1.0,83,0.00,,,0.00,weatherlink.com 1.10,2013-08-30 09:31:00,
2013-08-30 04:46:00,78.1,72.0,29.90,West,269,0.0,2.0,82,0.00,,,0.00,weatherlink.com 1.10,2013-08-30 09:46:00,
2013-08-30 05:01:00,77.7,72.0,29.90,WSW,250,1.0,3.0,82,0.00,,,0.00,weatherlink.com 1.10,2013-08-30 10:01:00,
2013-08-30 05:16:00,77.7,72.0,29.90,SW,229,0.0,2.0,82,0.00,,,0.00,weatherlink.com 1.10,2013-08-30 10:16:00,
2013-08-30 05:31:00,77.4,72.0,29.90,West,259,1.0,3.0,82,0.00,,,0.00,weatherlink.com 1.10,2013-08-30 10:31:00,
2013-08-30 05:46:00,77.7,72.0,29.90,West,262,1.0,3.0,82,0.00,,,0.00,weatherlink.com 1.10,2013-08-30 10:46:00,
2013-08-30 06:01:00,77.3,71.0,29.90,WSW,248,3.0,3.0,82,0.00,,,0.00,weatherlink.com 1.10,2013-08-30 11:01:00,
2013-08-30 06:16:00,77.0,72.0,29.90,West,266,0.0,2.0,83,0.00,,,0.00,weatherlink.com 1.10,2013-08-30 11:16:00,
2013-08-30 06:31:00,76.3,72.0,29.90,WNW,283,0.0,3.0,85,0.00,,,0.00,weatherlink.com 1.10,2013-08-30 11:31:00,
2013-08-30 06:46:00,75.9,72.0,29.91,West,274,1.0,2.0,86,0.00,,,0.00,weatherlink.com 1.10,2013-08-30 11:46:00,
2013-08-30 07:01:00,75.7,72.0,29.91,West,271,0.0,2.0,87,0.00,,,0.00,weatherlink.com 1.10,2013-08-30 12:01:00,
2013-08-30 07:16:00,75.9,72.0,29.91,West,266,1.0,4.0,87,0.00,,,0.00,weatherlink.com 1.10,2013-08-30 12:16:00,
2013-08-30 07:31:00,76.0,72.0,29.91,West,281,1.0,3.0,87,0.00,,,0.00,weatherlink.com 1.10,2013-08-30 12:31:00,
2013-08-30 07:46:00,76.6,73.0,29.91,WSW,255,3.0,5.0,87,0.00,,,0.00,weatherlink.com 1.10,2013-08-30 12:46:00,
2013-08-30 08:01:00,77.3,73.0,29.91,West,270,1.0,4.0,87,0.00,,,0.00,weatherlink.com 1.10,2013-08-30 13:01:00,
2013-08-30 08:16:00,78.3,74.0,29.91,NW,308,1.0,5.0,86,0.00,,,0.00,weatherlink.com 1.10,2013-08-30 13:16:00,
2013-08-30 08:31:00,78.9,74.0,29.91,West,270,4.0,6.0,85,0.00,,,0.00,weatherlink.com 1.10,2013-08-30 13:31:00,
2013-08-30 08:46:00,79.7,74.0,29.91,WSW,255,4.0,5.0,83,0.00,,,0.00,weatherlink.com 1.10,2013-08-30 13:46:00,
2013-08-30 09:01:00,80.5,75.0,29.91,West,260,1.0,5.0,83,0.00,,,0.00,weatherlink.com 1.10,2013-08-30 14:01:00,
2013-08-30 09:16:00,81.4,75.0,29.91,SW,214,2.0,6.0,82,0.00,,,0.00,weatherlink.com 1.10,2013-08-30 14:16:00,
2013-08-30 09:31:00,82.0,75.0,29.90,WSW,257,3.0,5.0,80,0.00,,,0.00,weatherlink.com 1.10,2013-08-30 14:31:00,
2013-08-30 10:07:00,84.3,76.0,29.90,West,280,3.0,6.0,77,0.00,,,0.00,weatherlink.com 1.10,2013-08-30 15:07:00,
2013-08-30 10:17:00,85.1,77.0,29.89,West,269,4.0,5.0,77,0.00,,,0.00,weatherlink.com 1.10,2013-08-30 15:17:00,
2013-08-30 10:32:00,86.3,77.0,29.89,WSW,253,4.0,6.0,74,0.00,,,0.00,weatherlink.com 1.10,2013-08-30 15:32:00,
2013-08-30 10:47:00,87.4,77.0,29.89,WSW,243,4.0,7.0,71,0.00,,,0.00,weatherlink.com 1.10,2013-08-30 15:47:00,
2013-08-30 11:02:00,88.3,77.0,29.89,NW,304,3.0,6.0,69,0.00,,,0.00,weatherlink.com 1.10,2013-08-30 16:02:00,
2013-08-30 11:17:00,89.2,77.0,29.88,WNW,285,3.0,7.0,68,0.00,,,0.00,weatherlink.com 1.10,2013-08-30 16:17:00,
2013-08-30 11:32:00,90.0,76.0,29.87,West,266,4.0,8.0,64,0.00,,,0.00,weatherlink.com 1.10,2013-08-30 16:32:00,
2013-08-30 11:47:00,90.6,76.0,29.87,WNW,283,2.0,7.0,63,0.00,,,0.00,weatherlink.com 1.10,2013-08-30 16:47:00,
2013-08-30 12:02:00,91.5,76.0,29.87,WSW,248,7.0,8.0,60,0.00,,,0.00,weatherlink.com 1.10,2013-08-30 17:02:00,
2013-08-30 12:17:00,92.1,75.0,29.86,WNW,298,4.0,7.0,57,0.00,,,0.00,weatherlink.com 1.10,2013-08-30 17:17:00,
2013-08-30 12:32:00,92.4,75.0,29.86,WNW,294,4.0,7.0,58,0.00,,,0.00,weatherlink.com 1.10,2013-08-30 17:32:00,
2013-08-30 12:47:00,92.9,75.0,29.86,WNW,288,5.0,8.0,56,0.00,,,0.00,weatherlink.com 1.10,2013-08-30 17:47:00,
2013-08-30 13:02:00,93.2,74.0,29.85,West,270,6.0,9.0,53,0.00,,,0.00,weatherlink.com 1.10,2013-08-30 18:02:00,
2013-08-30 13:17:00,93.8,72.0,29.84,NW,314,3.0,8.0,50,0.00,,,0.00,weatherlink.com 1.10,2013-08-30 18:17:00,
2013-08-30 13:32:00,94.5,74.0,29.84,WNW,283,2.0,7.0,52,0.00,,,0.00,weatherlink.com 1.10,2013-08-30 18:32:00,
2013-08-30 13:47:00,94.5,74.0,29.84,West,267,2.0,7.0,51,0.00,,,0.00,weatherlink.com 1.10,2013-08-30 18:47:00,
2013-08-30 14:02:00,94.5,73.0,29.83,West,274,3.0,7.0,50,0.00,,,0.00,weatherlink.com 1.10,2013-08-30 19:02:00,
2013-08-30 14:17:00,94.9,73.0,29.83,West,271,3.0,8.0,50,0.00,,,0.00,weatherlink.com 1.10,2013-08-30 19:17:00,
2013-08-30 14:32:00,95.2,73.0,29.82,West,262,6.0,9.0,49,0.00,,,0.00,weatherlink.com 1.10,2013-08-30 19:32:00,
2013-08-30 14:47:00,94.7,73.0,29.82,WNW,290,2.0,7.0,49,0.00,,,0.00,weatherlink.com 1.10,2013-08-30 19:47:00,
2013-08-30 15:03:00,95.7,75.0,29.81,WNW,283,1.0,6.0,51,0.00,,,0.00,weatherlink.com 1.10,2013-08-30 20:03:00,
2013-08-30 15:18:00,95.4,72.0,29.81,WSW,242,5.0,6.0,46,0.00,,,0.00,weatherlink.com 1.10,2013-08-30 20:18:00,
2013-08-30 15:33:00,95.5,75.0,29.80,West,276,1.0,5.0,51,0.00,,,0.00,weatherlink.com 1.10,2013-08-30 20:33:00,
2013-08-30 15:48:00,96.0,72.0,29.80,West,270,2.0,8.0,46,0.00,,,0.00,weatherlink.com 1.10,2013-08-30 20:48:00,
2013-08-30 16:03:00,95.0,72.0,29.80,West,281,3.0,6.0,48,0.00,,,0.00,weatherlink.com 1.10,2013-08-30 21:03:00,
2013-08-30 16:18:00,95.6,74.0,29.79,West,276,0.0,2.0,49,0.00,,,0.00,weatherlink.com 1.10,2013-08-30 21:18:00,
2013-08-30 16:33:00,95.3,74.0,29.79,West,278,2.0,3.0,51,0.00,,,0.00,weatherlink.com 1.10,2013-08-30 21:33:00,
2013-08-30 16:48:00,96.1,75.0,29.79,West,280,1.0,4.0,51,0.00,,,0.00,weatherlink.com 1.10,2013-08-30 21:48:00,
2013-08-30 17:03:00,96.2,73.0,29.78,WSW,252,2.0,4.0,47,0.00,,,0.00,weatherlink.com 1.10,2013-08-30 22:03:00,
2013-08-30 17:18:00,97.5,76.0,29.78,WNW,299,0.0,4.0,51,0.00,,,0.00,weatherlink.com 1.10,2013-08-30 22:18:00,
2013-08-30 17:33:00,98.8,76.0,29.78,SW,233,0.0,3.0,48,0.00,,,0.00,weatherlink.com 1.10,2013-08-30 22:33:00,
2013-08-30 17:48:00,99.2,78.0,29.77,SW,220,2.0,2.0,51,0.00,,,0.00,weatherlink.com 1.10,2013-08-30 22:48:00,
2013-08-30 18:03:00,98.1,77.0,29.77,SW,219,0.0,2.0,51,0.00,,,0.00,weatherlink.com 1.10,2013-08-30 23:03:00,
2013-08-30 18:18:00,97.5,76.0,29.77,SW,236,1.0,3.0,51,0.00,,,0.00,weatherlink.com 1.10,2013-08-30 23:18:00,
2013-08-30 18:33:00,96.8,77.0,29.77,SW,228,0.0,1.0,53,0.00,,,0.00,weatherlink.com 1.10,2013-08-30 23:33:00,
2013-08-30 18:48:00,95.5,76.0,29.76,SW,218,0.0,1.0,53,0.00,,,0.00,weatherlink.com 1.10,2013-08-30 23:48:00,
2013-08-30 19:03:00,94.6,74.0,29.76,WSW,249,1.0,1.0,51,0.00,,,0.00,weatherlink.com 1.10,2013-08-31 00:03:00,
2013-08-30 19:18:00,93.3,73.0,29.77,SW,219,0.0,1.0,52,0.00,,,0.00,weatherlink.com 1.10,2013-08-31 00:18:00,
2013-08-30 19:33:00,91.9,72.0,29.77,SSW,200,1.0,1.0,52,0.00,,,0.00,weatherlink.com 1.10,2013-08-31 00:33:00,
2013-08-30 19:48:00,91.1,71.0,29.77,SW,221,0.0,2.0,52,0.00,,,0.00,weatherlink.com 1.10,2013-08-31 00:48:00,
2013-08-30 20:03:00,89.8,72.0,29.78,WSW,257,0.0,3.0,55,0.00,,,0.00,weatherlink.com 1.10,2013-08-31 01:03:00,
2013-08-30 20:18:00,88.1,71.0,29.78,SW,219,4.0,6.0,58,0.00,,,0.00,weatherlink.com 1.10,2013-08-31 01:18:00,
2013-08-30 20:48:00,86.7,72.0,29.78,West,267,0.0,5.0,61,0.00,,,0.00,weatherlink.com 1.10,2013-08-31 01:48:00,
2013-08-30 21:03:00,86.0,72.0,29.78,West,266,1.0,3.0,63,0.00,,,0.00,weatherlink.com 1.10,2013-08-31 02:03:00,
2013-08-30 21:18:00,85.4,72.0,29.77,SW,214,2.0,2.0,64,0.00,,,0.00,weatherlink.com 1.10,2013-08-31 02:18:00,
2013-08-30 21:33:00,84.7,72.0,29.78,West,274,0.0,3.0,65,0.00,,,0.00,weatherlink.com 1.10,2013-08-31 02:33:00,
2013-08-30 21:48:00,84.2,72.0,29.77,WSW,240,0.0,4.0,66,0.00,,,0.00,weatherlink.com 1.10,2013-08-31 02:48:00,
2013-08-30 22:03:00,83.4,72.0,29.77,NW,311,3.0,4.0,68,0.00,,,0.00,weatherlink.com 1.10,2013-08-31 03:03:00,
2013-08-30 22:18:00,82.9,72.0,29.77,WNW,302,1.0,5.0,70,0.00,,,0.00,weatherlink.com 1.10,2013-08-31 03:18:00,
2013-08-30 22:33:00,82.7,72.0,29.77,West,273,1.0,3.0,70,0.00,,,0.00,weatherlink.com 1.10,2013-08-31 03:33:00,
2013-08-30 22:48:00,82.4,72.0,29.77,WNW,297,1.0,4.0,71,0.00,,,0.00,weatherlink.com 1.10,2013-08-31 03:48:00,
2013-08-30 23:03:00,82.5,72.0,29.77,WNW,287,2.0,4.0,71,0.00,,,0.00,weatherlink.com 1.10,2013-08-31 04:03:00,
2013-08-30 23:18:00,82.1,72.0,29.78,WNW,287,1.0,5.0,71,0.00,,,0.00,weatherlink.com 1.10,2013-08-31 04:18:00,
2013-08-30 23:33:00,82.1,72.0,29.78,West,281,2.0,4.0,71,0.00,,,0.00,weatherlink.com 1.10,2013-08-31 04:33:00,
2013-08-30 23:48:00,81.7,72.0,29.78,West,262,5.0,6.0,72,0.00,,,0.00,weatherlink.com 1.10,2013-08-31 04:48:00,